Theta_e
345 345 344 346 344 340 338 336 341 341 342 344 341 338 337 337 338 340 341 341 342 341 339 339 339 340 341 341 341 342 342 340 335
344 343 343 344 343 341 338 334 338 340 339 340 342 336 336 336 337 339 340 340 340 339 337 336 336 337 339 340 340 341 342 341 339
345 342 341 342 343 340 339 335 332 335 338 339 341 336 333 333 335 338 338 337 339 338 336 335 335 336 336 337 338 339 340 341 341
344 342 341 340 342 341 338 336 331 329 336 337 336 335 333 331 334 337 337 337 337 334 334 333 332 334 334 335 336 337 338 339 339
342 341 340 339 340 341 338 337 331 329 331 336 336 335 333 333 335 335 335 336 335 332 332 332 331 331 331 332 333 334 335 336 337
341 340 340 339 339 341 339 338 334 327 326 334 334 334 333 333 334 333 333 334 332 330 331 330 329 329 329 330 329 330 331 332 334
340 339 339 338 338 339 340 337 335 327 326 330 333 335 332 332 332 332 332 333 331 330 330 329 328 329 329 328 328 328 329 328 329
340 340 339 338 337 337 339 337 333 326 327 328 329 334 331 331 330 331 331 332 330 329 328 328 327 328 329 328 328 328 327 326 327
342 342 340 339 336 337 337 337 334 333 333 334 330 334 331 330 329 329 330 330 331 329 329 328 327 327 328 329 328 327 327 327 326
340 340 339 339 338 337 337 336 336 334 335 333 332 333 330 328 327 329 330 329 329 328 329 328 328 328 327 326 326 326 326 326 325
339 338 338 338 338 338 337 337 336 334 333 328 330 332 328 327 327 330 330 327 328 328 329 327 328 327 326 326 325 324 324 324 324
339 338 338 337 337 337 337 337 337 334 331 328 331 330 327 326 328 330 328 327 328 327 328 327 328 327 326 325 324 323 323 323 323
334 336 336 335 335 335 336 337 336 331 327 328 328 327 326 326 328 328 328 327 326 324 326 328 327 327 325 324 324 323 322 321 321
337 334 334 334 334 334 334 335 334 329 326 326 326 326 326 327 329 328 327 325 325 324 324 323 325 326 324 323 322 321 321 321 321
337 335 334 334 333 334 334 334 331 328 326 326 326 325 327 328 328 328 327 326 325 324 323 322 323 325 324 323 322 321 320 320 320
336 333 334 334 333 332 333 331 329 325 325 326 326 327 328 328 327 327 327 326 324 323 322 321 322 321 321 323 322 321 320 319 319
334 333 331 332 329 330 330 328 326 325 325 324 324 324 324 325 326 327 326 325 324 323 323 322 322 320 321 321 318 320 319 319 318
333 332 331 330 330 328 327 327 328 325 324 324 323 323 325 323 323 325 325 325 324 322 321 322 321 320 320 319 318 316 318 317 317
331 329 331 329 328 327 326 325 326 327 324 323 322 321 321 321 323 322 323 324 323 323 322 321 321 320 320 319 318 315 314 314 315
331 331 330 326 325 326 325 324 325 326 325 324 322 320 321 320 319 322 321 321 322 323 322 321 320 320 320 319 318 314 312 311 311
Wind_Speed
8 8 9 10 8 9 9 11 12 12 14 15 14 16 17 17 17 18 18 18 20 20 21 23 23 23 26 28 30 33 35 35 37
9 9 9 9 7 7 8 10 11 11 12 13 13 15 17 17 17 18 18 18 20 19 19 21 22 22 23 26 28 31 33 36 35
9 9 10 9 7 6 6 7 9 9 10 11 10 13 14 16 16 17 17 16 19 18 19 21 21 22 23 23 25 27 30 34 37
8 9 10 9 8 5 5 5 8 8 9 10 11 11 12 13 14 16 15 18 17 14 16 18 19 21 22 23 23 25 27 30 33
9 9 10 10 9 7 4 5 6 6 9 10 9 9 12 13 14 15 14 17 16 13 14 17 19 20 20 23 24 23 25 26 30
10 10 10 10 10 9 6 4 4 5 8 9 5 7 11 12 14 14 12 14 14 12 15 16 18 19 21 22 23 24 25 25 26
10 10 10 10 10 9 8 5 4 5 9 7 5 8 10 11 14 14 13 14 13 14 15 16 17 18 20 21 22 23 25 25 26
10 11 11 9 9 10 10 7 5 7 8 4 3 7 10 11 13 13 11 15 15 14 14 15 17 18 19 20 21 23 24 24 26
16 15 12 11 10 11 11 9 7 8 4 3 4 12 13 13 12 11 14 15 16 15 15 16 16 17 18 20 21 22 23 25 25
9 11 11 10 10 11 11 10 8 7 6 4 9 15 15 14 13 14 15 16 16 15 15 16 15 17 18 19 20 21 22 23 24
10 11 11 11 10 10 9 8 10 7 4 5 14 18 17 15 15 17 17 14 18 16 14 14 16 17 17 18 19 21 21 22 23
11 11 13 12 11 9 10 10 8 8 6 13 18 19 17 15 17 18 17 16 17 18 16 15 15 16 17 18 18 19 20 21 22
12 13 13 12 11 10 11 12 10 9 13 19 19 19 18 17 18 19 18 18 18 15 17 16 15 16 16 17 17 17 18 20 20
15 15 15 14 12 10 10 11 13 14 16 19 19 19 18 18 20 19 19 18 17 17 16 15 16 16 16 15 16 16 16 17 18
16 13 16 15 12 10 9 10 14 16 18 16 14 13 16 19 20 20 19 19 18 17 16 16 16 17 16 15 14 15 15 15 15
15 14 14 14 11 10 10 13 16 15 18 18 12 9 8 14 17 19 20 20 19 17 16 17 17 14 16 16 12 12 13 13 13
15 14 12 13 10 10 11 11 14 11 17 6 6 2 2 5 9 14 16 18 19 19 17 16 16 15 16 17 11 10 9 9 10
14 14 14 13 11 10 10 13 17 12 15 15 6 2 2 2 3 10 7 13 14 17 16 16 14 15 16 15 10 9 10 8 7
14 15 13 11 11 11 11 13 15 17 17 14 8 6 6 3 2 7 11 14 14 16 14 15 14 18 17 14 11 10 9 8 6
15 13 14 11 12 13 13 13 15 15 17 17 9 8 8 6 3 2 6 10 14 18 18 12 17 18 17 14 12 9 9 6 4
Wind_Direction
145 143 150 133 120 109 99 103 101 90 86 82 86 84 81 76 75 74 72 71 69 65 63 62 58 55 53 52 49 49 48 53 49
151 151 150 141 133 113 106 109 114 103 90 88 91 86 79 76 76 77 76 75 73 63 61 64 62 60 56 54 53 52 50 52 56
164 160 154 155 143 120 113 123 118 115 103 97 106 94 80 78 78 82 76 71 71 65 63 65 64 64 62 59 58 55 54 53 54
175 164 161 163 160 143 127 112 119 119 123 108 106 106 96 82 90 86 79 75 69 62 63 64 66 66 66 65 62 61 58 57 56
181 173 169 170 170 167 145 111 116 130 138 117 118 117 108 98 100 92 78 74 70 70 65 69 70 70 69 67 68 65 64 60 59
185 179 176 176 175 178 172 159 116 145 144 135 121 129 120 114 110 102 92 85 84 75 76 73 74 74 74 71 71 67 65 64 62
191 183 184 185 185 182 189 182 151 159 145 140 132 149 140 127 117 107 104 100 95 89 83 79 78 76 76 75 74 72 70 67 66
196 192 185 188 198 193 196 192 172 156 136 139 178 175 156 141 126 123 120 111 100 94 89 86 84 80 78 79 77 77 76 73 70
217 204 196 196 206 208 205 201 188 184 219 263 249 174 168 150 137 127 125 117 110 102 96 90 86 85 81 80 79 79 78 78 75
192 185 192 194 205 214 213 204 204 217 260 252 226 183 168 155 145 135 134 124 115 109 103 98 91 86 84 83 82 81 79 79 80
191 183 185 190 195 208 212 201 210 223 239 209 194 180 166 161 151 146 142 134 126 117 108 103 97 92 89 84 82 83 82 80 78
179 172 184 186 191 204 209 209 209 215 201 179 184 174 167 169 158 153 148 142 138 134 126 113 104 97 94 90 86 85 84 83 81
170 182 186 191 201 205 206 202 196 179 163 169 170 169 174 168 167 160 156 151 146 141 136 124 114 106 100 96 91 86 83 83 81
190 192 191 194 202 204 205 206 207 177 154 163 159 168 175 170 172 164 162 160 158 152 146 135 126 117 109 101 95 89 83 80 79
195 194 193 197 206 195 202 204 179 175 158 141 149 164 176 181 175 172 172 167 163 160 154 145 139 129 119 109 100 94 86 80 76
204 209 202 199 213 202 186 172 169 159 153 132 112 106 167 175 177 173 173 173 170 169 168 157 151 146 135 119 107 99 92 85 80
207 206 210 201 205 178 187 195 169 165 159 136 119 136 66 138 177 175 177 178 172 169 171 167 159 160 150 140 140 123 108 98 88
213 207 218 205 207 201 196 215 200 167 186 168 145 147 186 153 196 160 184 171 190 183 184 181 179 185 170 161 168 153 136 123 110
210 215 202 214 209 215 211 216 216 201 186 190 197 162 143 158 201 184 186 200 199 195 197 199 209 200 188 185 179 171 164 149 138
203 209 203 206 217 219 220 217 214 215 211 200 182 177 177 181 151 181 175 205 205 208 203 213 220 210 197 197 193 186 181 185 183